Location: Berg
(47.2344°N, 9.5296°E)
Time: 06:15:57
(UTC+00:00)

ITUPSAT 1 - Visible Passes

Search period start: 05 December 2021 00:00
Search period end: 15 December 2021 00:00
Orbit: 701 x 712 km, 98.6° (Epoch: 04 December)

Date Brightness Start Highest point End Pass type
(mag) Time Alt. Az. Time Alt. Az. Time Alt. Az.
05 Dec ? 04:51:13 10° ESE 04:54:37 20° ENE 04:58:01 10° NNE visible
06 Dec ? 05:33:47 10° SE 05:38:18 44° ENE 05:42:52 10° N visible
07 Dec ? 04:42:06 10° E 04:45:03 17° ENE 04:48:02 10° NNE visible
08 Dec ? 05:24:19 10° SE 05:28:41 36° ENE 05:33:05 10° N visible
09 Dec ? 04:33:09 10° E 04:35:32 14° NE 04:37:55 10° NNE visible
09 Dec ? 06:07:48 10° SSE 06:12:36 88° ENE 06:17:26 10° NNW visible
10 Dec ? 05:14:57 10° SE 05:19:05 30° ENE 05:23:15 10° N visible
11 Dec ? 04:24:28 10° ENE 04:26:00 11° NE 04:27:32 10° NE visible
11 Dec ? 05:58:09 10° SSE 06:02:55 72° ENE 06:07:44 10° N visible
12 Dec ? 05:05:37 10° ESE 05:09:30 25° ENE 05:13:24 10° N visible
13 Dec ? 05:48:34 10° SSE 05:53:16 59° ENE 05:58:00 10° N visible
14 Dec ? 04:56:22 10° ESE 04:59:55 21° ENE 05:03:29 10° NNE visible
